This is the latest recevied weather packets stored in our database for station/object YC0TBU-4. If no packets are shown the sender has not sent any weather packets the latest 10 day(s).
| Time | Temp. | Humidity | Pressure | Rain* | Wind** | Luminosity | Snow |
|---|---|---|---|---|---|---|---|
| 1777987965 | 28.89° C | 44% | 1011 hPa | - | - | - | - |
| 1777987030 | 29.44° C | 43% | 1010.8 hPa | - | - | - | - |
| 1777986095 | 29.44° C | 43% | 1010.2 hPa | - | - | - | - |
| 1777985160 | 29.44° C | 42% | 1010.9 hPa | - | - | - | - |
| 1777984225 | 29.44° C | 42% | 1010.1 hPa | - | - | - | - |
| 1777983290 | 29.44° C | 43% | 1010.1 hPa | - | - | - | - |
| 1777982339 | 27.22° C | 47% | 1010.3 hPa | - | - | - | - |
| 1777981404 | 28.33° C | 46% | 1010.2 hPa | - | - | - | - |
| 1777980469 | 30.56° C | 41% | 1009.7 hPa | - | - | - | - |
| 1777979534 | 30.56° C | 41% | 1011.1 hPa | - | - | - | - |
| 1777978599 | 30° C | 42% | 1010.6 hPa | - | - | - | - |
| 1777977664 | 28.89° C | 45% | 1010.1 hPa | - | - | - | - |
| 1777976729 | 30° C | 42% | 1010.4 hPa | - | - | - | - |
| 1777975794 | 32.22° C | 36% | 1009.6 hPa | - | - | - | - |
| 1777974859 | 32.22° C | 36% | 1008.3 hPa | - | - | - | - |
| 1777973908 | 32.22° C | 35% | 1008.9 hPa | - | - | - | - |
| 1777972973 | 31.67° C | 36% | 1009.1 hPa | - | - | - | - |
| 1777972038 | 32.78° C | 34% | 1007.8 hPa | - | - | - | - |
| 1777971108 | 33.33° C | 34% | 1007.4 hPa | - | - | - | - |
| 1777970152 | 32.22° C | 34% | 1007.6 hPa | - | - | - | - |
| 1777969216 | 32.22° C | 35% | 1007.9 hPa | - | - | - | - |
| 1777968281 | 32.22° C | 35% | 1008 hPa | - | - | - | - |
| 1777967347 | 32.22° C | 35% | 1008.5 hPa | - | - | - | - |
| 1777966412 | 31.67° C | 36% | 1009 hPa | - | - | - | - |
| 1777965476 | 31.67° C | 36% | 1008.5 hPa | - | - | - | - |
* Rain since midnight (hover to see other rain measurements)
** Current wind speed in m/s (hover to see current wind gust speed)